| time (UTC) | temp F | wind direction | speed knots | gust knots | rain 1hr in | rain 24hr in | rain mn in | humidity % | barometer mb |
| 20260508135404 | 68 | 71 | 0.9 | 1.7 | 0.00 | 0.01 | 0.01 | 88 | 1012.6 |
| 20260508134904 | 68 | 71 | 0.9 | 1.7 | 0.00 | 0.01 | 0.01 | 88 | 1012.8 |
| 20260508134405 | 68 | 71 | 0.9 | 2.6 | 0.00 | 0.01 | 0.01 | 88 | 1012.8 |
| 20260508133904 | 68 | 73 | 1.7 | 2.6 | 0.00 | 0.01 | 0.01 | 88 | 1012.8 |
| 20260508133404 | 68 | 73 | 0.9 | 1.7 | 0.00 | 0.01 | 0.01 | 88 | 1013.0 |
| 20260508131404 | 68 | 33 | 0.9 | 2.6 | 0.00 | 0.01 | 0.01 | 88 | 1012.9 |
| 20260508125903 | 68 | 43 | 1.7 | 4.3 | 0.00 | 0.01 | 0.01 | 88 | 1012.5 |
| 20260508125404 | 68 | 58 | 0.9 | 5.2 | 0.00 | 0.01 | 0.01 | 88 | 1012.5 |
| 20260508124904 | 68 | 79 | 1.7 | 5.2 | 0.00 | 0.01 | 0.01 | 88 | 1012.6 |
| 20260508124404 | 68 | 85 | 1.7 | 5.2 | 0.00 | 0.01 | 0.01 | 88 | 1012.7 |
| 20260508123904 | 68 | 23 | 1.7 | 5.2 | 0.00 | 0.01 | 0.01 | 88 | 1012.9 |
| 20260508123405 | 68 | 50 | 1.7 | 4.3 | 0.00 | 0.01 | 0.01 | 88 | 1013.0 |
| 20260508122905 | 68 | 338 | 2.6 | 4.3 | 0.00 | 0.01 | 0.01 | 88 | 1013.0 |
| 20260508122404 | 68 | 77 | 0.9 | 4.3 | 0.00 | 0.01 | 0.01 | 88 | 1012.9 |
| 20260508121904 | 68 | 13 | 1.7 | 4.3 | 0.00 | 0.01 | 0.01 | 88 | 1013.0 |
| 20260508121404 | 68 | 50 | 0.9 | 4.3 | 0.00 | 0.01 | 0.01 | 88 | 1012.8 |
| 20260508120904 | 68 | 39 | 2.6 | 4.3 | 0.00 | 0.01 | 0.01 | 88 | 1012.7 |
| 20260508120404 | 68 | 4 | 1.7 | 4.3 | 0.00 | 0.01 | 0.01 | 88 | 1012.6 |
| 20260508115903 | 68 | 4 | 1.7 | 4.3 | 0.00 | 0.01 | 0.01 | 88 | 1012.5 |
| 20260508115404 | 68 | 77 | 2.6 | 4.3 | 0.00 | 0.01 | 0.01 | 88 | 1012.4 |
| 20260508114404 | 68 | 69 | 1.7 | 4.3 | 0.00 | 0.01 | 0.01 | 88 | 1012.4 |
| 20260508113903 | 69 | 64 | 1.7 | 2.6 | 0.00 | 0.01 | 0.01 | 88 | 1012.5 |
| 20260508113405 | 69 | 35 | 0.9 | 2.6 | 0.00 | 0.01 | 0.01 | 88 | 1012.7 |
| 20260508112904 | 69 | 43 | 1.7 | 2.6 | 0.00 | 0.01 | 0.01 | 88 | 1012.8 |
| 20260508112404 | 69 | 58 | 0.9 | 2.6 | 0.00 | 0.01 | 0.01 | 88 | 1012.7 |
| 20260508111904 | 69 | 29 | 0.9 | 2.6 | 0.00 | 0.01 | 0.01 | 87 | 1012.9 |
| 20260508111404 | 69 | 23 | 0.9 | 2.6 | 0.00 | 0.01 | 0.01 | 87 | 1012.8 |
| 20260508110904 | 69 | 13 | 1.7 | 2.6 | 0.00 | 0.01 | 0.01 | 87 | 1012.8 |
| 20260508110404 | 69 | 13 | 0.0 | 2.6 | 0.00 | 0.01 | 0.01 | 87 | 1012.9 |
| 20260508105904 | 69 | 13 | 1.7 | 2.6 | 0.00 | 0.01 | 0.01 | 87 | 1012.6 |
| 20260508103904 | 69 | 94 | 0.9 | 4.3 | 0.01 | 0.01 | 0.01 | 87 | 1012.0 |
| 20260508103405 | 69 | 73 | 0.9 | 5.2 | 0.01 | 0.01 | 0.01 | 87 | 1011.9 |
| 20260508102903 | 69 | 93 | 1.7 | 5.2 | 0.01 | 0.01 | 0.01 | 87 | 1012.1 |
| 20260508101904 | 70 | 73 | 0.9 | 4.3 | 0.01 | 0.01 | 0.01 | 86 | 1012.1 |
| 20260508101404 | 70 | 83 | 0.9 | 2.6 | 0.01 | 0.01 | 0.01 | 86 | 1012.1 |
| 20260508100904 | 70 | 82 | 0.9 | 2.6 | 0.01 | 0.01 | 0.01 | 86 | 1012.3 |
| 20260508100404 | 70 | 117 | 1.7 | 2.6 | 0.01 | 0.01 | 0.01 | 86 | 1012.2 |
| 20260508095904 | 70 | 94 | 0.9 | 2.6 | 0.01 | 0.01 | 0.01 | 85 | 1012.2 |
| 20260508095404 | 71 | 22 | 0.9 | 2.6 | 0.01 | 0.01 | 0.01 | 85 | 1012.3 |
| 20260508094904 | 71 | 2 | 1.7 | 4.3 | 0.01 | 0.01 | 0.01 | 85 | 1012.5 |
| 20260508094405 | 71 | 33 | 1.7 | 4.3 | 0.00 | 0.00 | 0.00 | 85 | 1012.5 |
| 20260508093904 | 71 | 57 | 2.6 | 4.3 | 0.00 | 0.00 | 0.00 | 84 | 1012.5 |
| 20260508093405 | 72 | 54 | 0.9 | 2.6 | 0.00 | 0.00 | 0.00 | 85 | 1012.5 |
| 20260508092904 | 72 | 27 | 1.7 | 2.6 | 0.00 | 0.00 | 0.00 | 84 | 1012.4 |
| 20260508091905 | 73 | 358 | 1.7 | 2.6 | 0.00 | 0.00 | 0.00 | 84 | 1012.5 |
| 20260508091404 | 73 | 34 | 0.9 | 2.6 | 0.00 | 0.00 | 0.00 | 84 | 1012.6 |
| 20260508090905 | 73 | 97 | 1.7 | 2.6 | 0.00 | 0.00 | 0.00 | 84 | 1012.5 |
| 20260508090404 | 73 | 98 | 0.9 | 4.3 | 0.00 | 0.00 | 0.00 | 83 | 1012.4 |
| 20260508085905 | 74 | 98 | 1.7 | 4.3 | 0.00 | 0.00 | 0.00 | 83 | 1012.4 |
| 20260508085404 | 74 | 104 | 0.9 | 5.2 | 0.00 | 0.00 | 0.00 | 83 | 1012.4 |
| 20260508084903 | 74 | 65 | 0.0 | 5.2 | 0.00 | 0.00 | 0.00 | 82 | 1012.3 |
| 20260508084404 | 74 | 116 | 0.9 | 2.6 | 0.00 | 0.00 | 0.00 | 82 | 1012.4 |
| 20260508083904 | 74 | 97 | 1.7 | 6.1 | 0.00 | 0.00 | 0.00 | 82 | 1012.5 |
| 20260508083404 | 74 | 106 | 0.9 | 7.0 | 0.00 | 0.00 | 0.00 | 82 | 1012.5 |
| 20260508082904 | 74 | 160 | 2.6 | 7.0 | 0.00 | 0.00 | 0.00 | 81 | 1012.5 |
| 20260508082404 | 74 | 147 | 1.7 | 6.1 | 0.00 | 0.00 | 0.00 | 81 | 1012.4 |
| 20260508081904 | 74 | 151 | 0.9 | 6.1 | 0.00 | 0.00 | 0.00 | 81 | 1012.5 |
| 20260508081405 | 74 | 116 | 1.7 | 6.1 | 0.00 | 0.00 | 0.00 | 81 | 1012.6 |
| 20260508080904 | 74 | 137 | 0.9 | 2.6 | 0.00 | 0.00 | 0.00 | 81 | 1012.6 |
| 20260508080404 | 74 | 119 | 0.9 | 6.1 | 0.00 | 0.00 | 0.00 | 81 | 1012.4 |
| 20260508075905 | 74 | 119 | 1.7 | 6.1 | 0.00 | 0.00 | 0.00 | 81 | 1012.3 |
| 20260508075404 | 74 | 151 | 0.9 | 6.1 | 0.00 | 0.00 | 0.00 | 81 | 1012.3 |
| 20260508073903 | 74 | 152 | 1.7 | 6.1 | 0.00 | 0.00 | 0.00 | 81 | 1012.5 |
| 20260508073403 | 74 | 139 | 2.6 | 6.1 | 0.00 | 0.00 | 0.00 | 81 | 1012.5 |
| 20260508072404 | 74 | 148 | 0.9 | 2.6 | 0.00 | 0.00 | 0.00 | 80 | 1012.8 |
| 20260508071904 | 74 | 149 | 0.9 | 1.7 | 0.00 | 0.00 | 0.00 | 80 | 1012.9 |
| 20260508071404 | 74 | 149 | 0.0 | 2.6 | 0.00 | 0.00 | 0.00 | 80 | 1012.9 |
| 20260508070904 | 74 | 149 | 0.9 | 4.3 | 0.00 | 0.00 | 0.00 | 79 | 1012.7 |
| 20260508070404 | 74 | 92 | 0.0 | 4.3 | 0.00 | 0.00 | 0.00 | 79 | 1012.7 |
| 20260508065905 | 74 | 82 | 1.7 | 4.3 | 0.00 | 0.00 | 0.00 | 79 | 1012.4 |
| 20260508064905 | 74 | 359 | 0.9 | 4.3 | 0.00 | 0.00 | 0.00 | 79 | 1012.6 |
| 20260508064404 | 74 | 25 | 1.7 | 4.3 | 0.00 | 0.00 | 0.00 | 79 | 1012.8 |
| 20260508063905 | 74 | 90 | 0.9 | 4.3 | 0.00 | 0.00 | 0.00 | 79 | 1012.4 |
| 20260508063404 | 74 | 79 | 1.7 | 2.6 | 0.00 | 0.00 | 0.00 | 79 | 1012.6 |
| 20260508062904 | 74 | 99 | 1.7 | 2.6 | 0.00 | 0.00 | 0.00 | 79 | 1013.1 |
| 20260508062404 | 74 | 115 | 0.9 | 2.6 | 0.00 | 0.00 | 0.00 | 79 | 1013.1 |
| 20260508061404 | 74 | 69 | 0.9 | 2.6 | 0.00 | 0.00 | 0.00 | 78 | 1013.3 |
| 20260508060905 | 74 | 77 | 0.9 | 2.6 | 0.00 | 0.00 | 0.00 | 78 | 1013.3 |
| 20260508060403 | 74 | 74 | 1.7 | 4.3 | 0.00 | 0.00 | 0.00 | 78 | 1013.1 |
| 20260508055905 | 74 | 100 | 1.7 | 4.3 | 0.00 | 0.00 | 0.00 | 78 | 1013.1 |
| 20260508055404 | 74 | 133 | 0.9 | 2.6 | 0.00 | 0.00 | 0.00 | 78 | 1013.1 |
| 20260508054904 | 74 | 92 | 1.7 | 2.6 | 0.00 | 0.00 | 0.00 | 78 | 1013.0 |
| 20260508054404 | 74 | 64 | 0.9 | 2.6 | 0.00 | 0.00 | 0.00 | 78 | 1013.0 |
| 20260508053904 | 74 | 59 | 0.9 | 4.3 | 0.00 | 0.00 | 0.00 | 78 | 1013.0 |
| 20260508053404 | 74 | 90 | 1.7 | 4.3 | 0.00 | 0.00 | 0.00 | 78 | 1012.5 |
| 20260508052904 | 74 | 76 | 1.7 | 4.3 | 0.00 | 0.00 | 0.00 | 78 | 1012.3 |
| 20260508052404 | 74 | 86 | 1.7 | 4.3 | 0.00 | 0.00 | 0.00 | 78 | 1012.6 |
| 20260508051905 | 74 | 94 | 0.9 | 4.3 | 0.00 | 0.00 | 0.00 | 78 | 1012.7 |
| 20260508051404 | 74 | 99 | 0.9 | 4.3 | 0.00 | 0.00 | 0.00 | 78 | 1012.6 |
| 20260508050904 | 74 | 68 | 1.7 | 7.0 | 0.00 | 0.00 | 0.00 | 78 | 1012.8 |
| 20260508050404 | 74 | 90 | 2.6 | 7.0 | 0.00 | 0.00 | 0.00 | 78 | 1012.6 |
| 20260508045404 | 74 | 143 | 2.6 | 5.2 | 0.00 | 0.00 | 0.00 | 77 | 1012.6 |
| 20260508044905 | 74 | 98 | 0.9 | 5.2 | 0.00 | 0.00 | 0.00 | 76 | 1012.6 |
| 20260508042904 | 74 | 116 | 0.9 | 4.3 | 0.00 | 0.00 | 0.00 | 74 | 1013.0 |
| 20260508042404 | 74 | 121 | 0.9 | 6.1 | 0.00 | 0.00 | 0.00 | 74 | 1013.1 |
| 20260508041903 | 74 | 113 | 0.9 | 6.1 | 0.00 | 0.00 | 0.00 | 73 | 1013.2 |
| 20260508041403 | 75 | 106 | 1.7 | 6.1 | 0.00 | 0.00 | 0.00 | 73 | 1013.4 |
| 20260508040905 | 75 | 91 | 2.6 | 6.1 | 0.00 | 0.00 | 0.00 | 74 | 1013.6 |
| 20260508040404 | 75 | 118 | 2.6 | 6.1 | 0.00 | 0.00 | 0.00 | 74 | 1013.7 |
| 20260508035904 | 75 | 64 | 1.7 | 4.3 | 0.00 | 0.00 | 0.00 | 74 | 1013.8 |
| 20260508035405 | 75 | 79 | 1.7 | 4.3 | 0.00 | 0.00 | 0.00 | 73 | 1013.9 |
| 20260508034904 | 75 | 85 | 0.9 | 6.1 | 0.00 | 0.00 | 0.00 | 74 | 1014.0 |
| 20260508034404 | 75 | 100 | 0.9 | 6.1 | 0.00 | 0.00 | 0.00 | 74 | 1013.9 |
| 20260508033904 | 75 | 80 | 1.7 | 4.3 | 0.00 | 0.00 | 0.00 | 73 | 1013.9 |
| 20260508032904 | 75 | 71 | 0.9 | 6.1 | 0.00 | 0.00 | 0.00 | 73 | 1013.8 |
| 20260508032404 | 75 | 99 | 2.6 | 6.1 | 0.00 | 0.00 | 0.00 | 72 | 1013.9 |
| 20260508031904 | 75 | 100 | 2.6 | 6.1 | 0.00 | 0.00 | 0.00 | 72 | 1013.7 |
| 20260508031404 | 75 | 70 | 0.9 | 6.1 | 0.00 | 0.00 | 0.00 | 72 | 1013.8 |
| 20260508030904 | 75 | 130 | 2.6 | 6.1 | 0.00 | 0.00 | 0.00 | 72 | 1013.7 |
| 20260508030404 | 76 | 96 | 2.6 | 4.3 | 0.00 | 0.00 | 0.00 | 71 | 1013.6 |
| 20260508025904 | 76 | 97 | 1.7 | 4.3 | 0.00 | 0.00 | 0.00 | 71 | 1013.4 |
| 20260508024904 | 76 | 57 | 0.9 | 4.3 | 0.00 | 0.00 | 0.00 | 71 | 1013.7 |
| 20260508024404 | 76 | 56 | 1.7 | 4.3 | 0.00 | 0.00 | 0.00 | 70 | 1013.6 |
| 20260508023905 | 76 | 74 | 0.9 | 6.1 | 0.00 | 0.00 | 0.00 | 70 | 1013.6 |
| 20260508023404 | 76 | 74 | 1.7 | 6.1 | 0.00 | 0.00 | 0.00 | 70 | 1013.5 |
| 20260508022904 | 76 | 74 | 1.7 | 4.3 | 0.00 | 0.00 | 0.00 | 70 | 1013.5 |
| 20260508022405 | 76 | 84 | 1.7 | 5.2 | 0.00 | 0.00 | 0.00 | 70 | 1013.6 |
| 20260508021905 | 76 | 81 | 2.6 | 5.2 | 0.00 | 0.00 | 0.00 | 70 | 1013.6 |
| 20260508021404 | 76 | 85 | 1.7 | 2.6 | 0.00 | 0.00 | 0.00 | 70 | 1013.5 |
| 20260508020905 | 76 | 89 | 1.7 | 4.3 | 0.00 | 0.00 | 0.00 | 70 | 1013.4 |
| 20260508020404 | 76 | 67 | 2.6 | 7.0 | 0.00 | 0.00 | 0.00 | 70 | 1013.3 |
| 20260508015404 | 76 | 64 | 2.6 | 5.2 | 0.00 | 0.00 | 0.00 | 70 | 1013.4 |
| 20260508014904 | 76 | 63 | 0.9 | 4.3 | 0.00 | 0.00 | 0.00 | 70 | 1013.5 |
| 20260508014404 | 76 | 60 | 2.6 | 4.3 | 0.00 | 0.00 | 0.00 | 69 | 1013.5 |
| 20260508013904 | 76 | 28 | 1.7 | 4.3 | 0.00 | 0.00 | 0.00 | 70 | 1013.5 |
| 20260508013404 | 76 | 19 | 1.7 | 5.2 | 0.00 | 0.00 | 0.00 | 70 | 1013.5 |
| 20260508012905 | 76 | 35 | 2.6 | 5.2 | 0.00 | 0.00 | 0.00 | 70 | 1013.5 |
| 20260508012404 | 76 | 34 | 1.7 | 5.2 | 0.00 | 0.00 | 0.00 | 70 | 1013.4 |
| 20260508011904 | 77 | 37 | 1.7 | 5.2 | 0.00 | 0.00 | 0.00 | 71 | 1013.4 |
| 20260508011404 | 77 | 45 | 0.9 | 4.3 | 0.00 | 0.00 | 0.00 | 71 | 1013.3 |
| 20260508010904 | 77 | 14 | 1.7 | 4.3 | 0.00 | 0.00 | 0.00 | 71 | 1013.2 |
| 20260508010404 | 77 | 54 | 1.7 | 5.2 | 0.00 | 0.00 | 0.00 | 70 | 1013.2 |
| 20260508005904 | 77 | 48 | 1.7 | 5.2 | 0.00 | 0.00 | 0.00 | 71 | 1013.1 |
| 20260508005405 | 77 | 77 | 1.7 | 5.2 | 0.00 | 0.00 | 0.00 | 71 | 1013.1 |
| 20260508004904 | 78 | 50 | 2.6 | 4.3 | 0.00 | 0.00 | 0.00 | 71 | 1013.1 |
| 20260508004404 | 78 | 38 | 0.9 | 2.6 | 0.00 | 0.00 | 0.00 | 71 | 1013.0 |
| 20260508003904 | 78 | 23 | 0.9 | 2.6 | 0.00 | 0.00 | 0.00 | 71 | 1013.1 |
| 20260508003404 | 78 | 30 | 0.9 | 2.6 | 0.00 | 0.00 | 0.00 | 71 | 1013.1 |
| 20260508002904 | 78 | 53 | 1.7 | 2.6 | 0.00 | 0.00 | 0.00 | 70 | 1013.0 |
| 20260508002404 | 78 | 44 | 0.9 | 2.6 | 0.00 | 0.00 | 0.00 | 70 | 1013.1 |
| 20260508001903 | 79 | 64 | 1.7 | 2.6 | 0.00 | 0.00 | 0.00 | 69 | 1013.2 |
| 20260508001404 | 79 | 45 | 0.9 | 2.6 | 0.00 | 0.00 | 0.00 | 69 | 1013.3 |
| 20260508000904 | 79 | 66 | 0.0 | 2.6 | 0.00 | 0.00 | 0.00 | 69 | 1013.2 |
| 20260508000405 | 79 | 67 | 1.7 | 2.6 | 0.00 | 0.00 | 0.00 | 69 | 1013.1 |
| 20260507235405 | 79 | 71 | 0.9 | 6.1 | 0.00 | 0.00 | 0.00 | 69 | 1013.0 |
| 20260507234404 | 80 | 83 | 2.6 | 6.1 | 0.00 | 0.00 | 0.00 | 68 | 1012.8 |
| 20260507233904 | 80 | 78 | 0.9 | 6.1 | 0.00 | 0.00 | 0.00 | 67 | 1012.9 |
| 20260507233404 | 80 | 103 | 1.7 | 6.1 | 0.00 | 0.00 | 0.00 | 67 | 1012.8 |
| 20260507232904 | 81 | 102 | 1.7 | 5.2 | 0.00 | 0.00 | 0.00 | 67 | 1012.6 |
| 20260507232403 | 81 | 54 | 1.7 | 5.2 | 0.00 | 0.00 | 0.00 | 67 | 1012.8 |
| 20260507231405 | 81 | 122 | 0.9 | 5.2 | 0.00 | 0.00 | 0.00 | 66 | 1012.8 |
| 20260507230903 | 81 | 67 | 1.7 | 7.0 | 0.00 | 0.00 | 0.00 | 65 | 1012.9 |
| 20260507230404 | 82 | 84 | 1.7 | 7.0 | 0.00 | 0.00 | 0.00 | 65 | 1012.9 |
| 20260507225904 | 82 | 127 | 1.7 | 5.2 | 0.00 | 0.00 | 0.00 | 64 | 1012.9 |
| 20260507225404 | 83 | 72 | 2.6 | 5.2 | 0.00 | 0.00 | 0.00 | 64 | 1012.9 |
| 20260507224904 | 82 | 36 | 1.7 | 5.2 | 0.00 | 0.00 | 0.00 | 64 | 1012.9 |
| 20260507224403 | 83 | 114 | 2.6 | 5.2 | 0.00 | 0.00 | 0.00 | 63 | 1012.9 |
| 20260507223904 | 83 | 53 | 1.7 | 5.2 | 0.00 | 0.00 | 0.00 | 63 | 1012.8 |
| 20260507223404 | 83 | 75 | 1.7 | 5.2 | 0.00 | 0.00 | 0.00 | 63 | 1012.8 |
| 20260507222904 | 83 | 61 | 1.7 | 5.2 | 0.00 | 0.00 | 0.00 | 62 | 1012.8 |
| 20260507222404 | 83 | 42 | 1.7 | 8.7 | 0.00 | 0.00 | 0.00 | 63 | 1012.8 |
| 20260507221905 | 83 | 66 | 3.5 | 8.7 | 0.00 | 0.00 | 0.00 | 62 | 1012.8 |
| 20260507221404 | 83 | 98 | 2.6 | 4.3 | 0.00 | 0.00 | 0.00 | 63 | 1012.9 |
| 20260507220904 | 83 | 119 | 1.7 | 4.3 | 0.00 | 0.00 | 0.00 | 63 | 1012.9 |
| 20260507220404 | 82 | 51 | 1.7 | 4.3 | 0.00 | 0.00 | 0.00 | 64 | 1012.9 |
| 20260507215905 | 83 | 68 | 2.6 | 4.3 | 0.00 | 0.00 | 0.00 | 65 | 1012.9 |
| 20260507215404 | 82 | 22 | 2.6 | 6.1 | 0.00 | 0.00 | 0.00 | 63 | 1012.8 |
| 20260507214904 | 83 | 11 | 2.6 | 6.1 | 0.00 | 0.00 | 0.00 | 62 | 1012.9 |
| 20260507214405 | 83 | 65 | 2.6 | 6.1 | 0.00 | 0.00 | 0.00 | 62 | 1012.8 |
| 20260507213404 | 84 | 6 | 1.7 | 7.0 | 0.00 | 0.00 | 0.00 | 61 | 1012.7 |
| 20260507212905 | 84 | 24 | 2.6 | 7.8 | 0.00 | 0.00 | 0.00 | 60 | 1012.9 |
| 20260507212404 | 84 | 48 | 2.6 | 7.8 | 0.00 | 0.00 | 0.00 | 60 | 1013.0 |
| 20260507211903 | 84 | 82 | 2.6 | 7.8 | 0.00 | 0.00 | 0.00 | 61 | 1013.1 |
| 20260507211404 | 84 | 78 | 3.5 | 7.8 | 0.00 | 0.00 | 0.00 | 60 | 1013.2 |
| 20260507210905 | 84 | 58 | 3.5 | 7.8 | 0.00 | 0.00 | 0.00 | 61 | 1013.3 |
| 20260507210405 | 84 | 20 | 2.6 | 7.8 | 0.00 | 0.00 | 0.00 | 62 | 1013.3 |
| 20260507205904 | 83 | 56 | 2.6 | 7.8 | 0.00 | 0.00 | 0.00 | 61 | 1013.3 |
| 20260507204904 | 82 | 39 | 5.2 | 8.7 | 0.00 | 0.00 | 0.00 | 64 | 1013.5 |
| 20260507204404 | 81 | 350 | 3.5 | 8.7 | 0.00 | 0.00 | 0.00 | 64 | 1013.6 |
| 20260507203903 | 80 | 33 | 4.3 | 7.8 | 0.00 | 0.00 | 0.00 | 69 | 1013.5 |
| 20260507202904 | 79 | 32 | 2.6 | 7.8 | 0.00 | 0.00 | 0.00 | 69 | 1013.7 |
| 20260507202403 | 78 | 57 | 1.7 | 8.7 | 0.00 | 0.00 | 0.00 | 69 | 1013.7 |
| 20260507201903 | 78 | 1 | 4.3 | 8.7 | 0.00 | 0.00 | 0.00 | 67 | 1013.8 |
| 20260507201404 | 78 | 354 | 2.6 | 8.7 | 0.00 | 0.00 | 0.00 | 66 | 1014.0 |
| 20260507200905 | 79 | 10 | 2.6 | 8.7 | 0.00 | 0.00 | 0.00 | 67 | 1014.1 |
| 20260507200404 | 79 | 3 | 3.5 | 8.7 | 0.00 | 0.00 | 0.00 | 67 | 1014.2 |
| 20260507195904 | 79 | 54 | 2.6 | 7.0 | 0.00 | 0.00 | 0.00 | 67 | 1014.1 |
| 20260507195404 | 79 | 0 | 3.5 | 7.8 | 0.00 | 0.00 | 0.00 | 67 | 1014.1 |
| 20260507194905 | 78 | 30 | 2.6 | 7.8 | 0.00 | 0.00 | 0.00 | 67 | 1014.2 |
| 20260507193404 | 78 | 340 | 1.7 | 7.8 | 0.00 | 0.00 | 0.00 | 68 | 1014.2 |
| 20260507192904 | 78 | 18 | 3.5 | 7.8 | 0.00 | 0.00 | 0.00 | 68 | 1014.3 |
| 20260507191405 | 77 | 22 | 2.6 | 7.0 | 0.00 | 0.00 | 0.00 | 68 | 1014.6 |
| 20260507190904 | 78 | 25 | 3.5 | 7.0 | 0.00 | 0.00 | 0.00 | 66 | 1014.6 |
| 20260507190404 | 78 | 43 | 1.7 | 7.0 | 0.00 | 0.00 | 0.00 | 68 | 1014.6 |
| 20260507185404 | 77 | 24 | 1.7 | 8.7 | 0.00 | 0.00 | 0.00 | 68 | 1014.6 |
| 20260507184904 | 76 | 356 | 2.6 | 8.7 | 0.00 | 0.00 | 0.00 | 71 | 1014.7 |
| 20260507184404 | 75 | 60 | 2.6 | 7.8 | 0.00 | 0.00 | 0.00 | 71 | 1014.7 |
| 20260507183905 | 75 | 40 | 4.3 | 8.7 | 0.00 | 0.00 | 0.00 | 71 | 1014.8 |
| 20260507183404 | 75 | 54 | 4.3 | 8.7 | 0.00 | 0.00 | 0.00 | 71 | 1014.8 |
| 20260507182904 | 74 | 23 | 5.2 | 8.7 | 0.00 | 0.00 | 0.00 | 72 | 1014.8 |
| 20260507182404 | 74 | 36 | 5.2 | 7.8 | 0.00 | 0.00 | 0.00 | 72 | 1014.9 |
| 20260507181904 | 73 | 358 | 1.7 | 7.8 | 0.00 | 0.00 | 0.00 | 72 | 1014.9 |
| 20260507181404 | 73 | 12 | 3.5 | 7.8 | 0.00 | 0.00 | 0.00 | 73 | 1015.0 |
| 20260507180904 | 72 | 9 | 2.6 | 6.1 | 0.00 | 0.00 | 0.00 | 74 | 1015.0 |
| 20260507180404 | 72 | 59 | 2.6 | 7.0 | 0.00 | 0.00 | 0.00 | 74 | 1015.1 |
| 20260507175904 | 71 | 46 | 2.6 | 7.0 | 0.00 | 0.00 | 0.00 | 75 | 1015.2 |
| 20260507175404 | 71 | 339 | 2.6 | 7.0 | 0.00 | 0.00 | 0.00 | 74 | 1015.3 |
| 20260507174904 | 71 | 58 | 2.6 | 7.0 | 0.00 | 0.00 | 0.00 | 74 | 1015.4 |
| 20260507174404 | 70 | 15 | 4.3 | 10.4 | 0.00 | 0.00 | 0.00 | 74 | 1015.4 |
| 20260507173404 | 70 | 14 | 4.3 | 10.4 | 0.00 | 0.00 | 0.00 | 74 | 1015.5 |
| 20260507172905 | 70 | 344 | 4.3 | 7.0 | 0.00 | 0.00 | 0.00 | 74 | 1015.5 |
| 20260507172404 | 70 | 22 | 2.6 | 7.0 | 0.00 | 0.00 | 0.00 | 75 | 1015.6 |
| 20260507171905 | 70 | 47 | 3.5 | 8.7 | 0.00 | 0.00 | 0.00 | 75 | 1015.6 |
| 20260507171404 | 70 | 63 | 1.7 | 8.7 | 0.00 | 0.00 | 0.00 | 75 | 1015.6 |
| 20260507170904 | 70 | 16 | 4.3 | 8.7 | 0.00 | 0.00 | 0.00 | 75 | 1015.7 |
| 20260507170404 | 70 | 2 | 4.3 | 7.8 | 0.00 | 0.00 | 0.00 | 76 | 1015.6 |
| 20260507165904 | 69 | 59 | 2.6 | 7.8 | 0.00 | 0.00 | 0.00 | 76 | 1015.5 |
| 20260507165404 | 69 | 354 | 2.6 | 8.7 | 0.00 | 0.00 | 0.00 | 77 | 1015.5 |
| 20260507164403 | 68 | 4 | 1.7 | 8.7 | 0.00 | 0.00 | 0.00 | 78 | 1015.4 |
| 20260507163904 | 67 | 47 | 2.6 | 8.7 | 0.00 | 0.00 | 0.00 | 79 | 1015.5 |
| 20260507163404 | 67 | 11 | 2.6 | 7.8 | 0.00 | 0.00 | 0.00 | 79 | 1015.6 |
| 20260507162905 | 67 | 19 | 4.3 | 7.8 | 0.00 | 0.00 | 0.00 | 79 | 1015.6 |
| 20260507162404 | 66 | 51 | 3.5 | 7.8 | 0.00 | 0.00 | 0.00 | 79 | 1015.6 |
| 20260507161904 | 66 | 13 | 4.3 | 10.4 | 0.00 | 0.00 | 0.00 | 79 | 1015.5 |
| 20260507161404 | 66 | 26 | 3.5 | 10.4 | 0.00 | 0.00 | 0.00 | 79 | 1015.5 |
| 20260507160905 | 66 | 27 | 3.5 | 10.4 | 0.00 | 0.00 | 0.00 | 80 | 1015.5 |
| 20260507155904 | 66 | 14 | 4.3 | 8.7 | 0.00 | 0.00 | 0.00 | 80 | 1015.4 |
| 20260507155405 | 66 | 2 | 3.5 | 7.8 | 0.00 | 0.00 | 0.00 | 80 | 1015.6 |
| 20260507154904 | 66 | 34 | 2.6 | 10.4 | 0.00 | 0.00 | 0.00 | 80 | 1015.8 |
| 20260507154404 | 66 | 21 | 5.2 | 10.4 | 0.00 | 0.00 | 0.00 | 80 | 1015.8 |
| 20260507153904 | 66 | 13 | 2.6 | 7.8 | 0.00 | 0.00 | 0.00 | 80 | 1015.8 |
| 20260507153404 | 66 | 31 | 2.6 | 11.3 | 0.00 | 0.00 | 0.00 | 80 | 1015.8 |
| 20260507152904 | 66 | 41 | 2.6 | 11.3 | 0.00 | 0.00 | 0.00 | 80 | 1015.7 |
| 20260507152404 | 66 | 5 | 4.3 | 8.7 | 0.00 | 0.00 | 0.00 | 80 | 1015.6 |
| 20260507151904 | 66 | 12 | 2.6 | 10.4 | 0.00 | 0.00 | 0.00 | 80 | 1015.7 |
| 20260507150904 | 66 | 349 | 6.1 | 10.4 | 0.00 | 0.00 | 0.00 | 79 | 1015.6 |
| 20260507150403 | 66 | 26 | 5.2 | 10.4 | 0.00 | 0.00 | 0.00 | 79 | 1015.4 |
| 20260507145904 | 66 | 32 | 2.6 | 10.4 | 0.00 | 0.00 | 0.00 | 79 | 1015.3 |
| 20260507145405 | 66 | 21 | 3.5 | 10.4 | 0.00 | 0.00 | 0.00 | 79 | 1015.4 |
| 20260507144904 | 66 | 2 | 4.3 | 10.4 | 0.00 | 0.00 | 0.00 | 79 | 1015.5 |
| 20260507144404 | 66 | 17 | 3.5 | 10.4 | 0.00 | 0.00 | 0.00 | 79 | 1015.4 |
| 20260507143405 | 67 | 12 | 4.3 | 12.2 | 0.00 | 0.00 | 0.00 | 79 | 1015.3 |
| 20260507142404 | 67 | 25 | 3.5 | 12.2 | 0.00 | 0.00 | 0.00 | 79 | 1015.2 |
| 20260507141904 | 67 | 21 | 4.3 | 10.4 | 0.00 | 0.00 | 0.00 | 79 | 1015.3 |
| 20260507141403 | 67 | 17 | 5.2 | 10.4 | 0.00 | 0.00 | 0.00 | 80 | 1015.0 |
| 20260507140904 | 66 | 17 | 4.3 | 10.4 | 0.00 | 0.00 | 0.00 | 81 | 1015.0 |
| 20260507135903 | 66 | 41 | 2.6 | 7.8 | 0.00 | 0.00 | 0.00 | 82 | 1015.1 |